EW7537 Weather Reports


Display with metric or nautical units.
time (UTC)temp
F
wind
direction
speed
MPH
gust
MPH
rain 1hr
in
rain 24hr
in
rain mn
in
humidity
%
barometer
mb
20260503184704 74 271 2.0 3.0 0.00 0.00 0.00 34 1005.6
20260503184204 73 270 0.0 1.0 0.00 0.00 0.00 41 1005.7
20260503183704 71 231 0.0 0.0 0.00 0.00 0.00 43 1005.7
20260503183204 71 247 0.0 1.0 0.00 0.00 0.00 43 1005.7
20260503182704 70 238 0.0 0.0 0.00 0.00 0.00 44 1005.7
20260503181704 70 235 0.0 0.0 0.00 0.00 0.00 41 1006.0
20260503180704 70 194 1.0 10.0 0.00 0.00 0.00 45 1006.1
20260503175703 68 216 1.0 7.0 0.00 0.00 0.00 44 1006.1
20260503175204 69 212 0.0 0.0 0.00 0.00 0.00 32 1006.1
20260503173704 67 194 0.0 0.0 0.00 0.00 0.00 45 1006.1
20260503172704 67 166 0.0 1.0 0.00 0.00 0.00 46 1006.2
20260503171704 68 268 0.0 9.0 0.00 0.00 0.00 44 1006.6
20260503171204 68 270 4.0 10.0 0.00 0.00 0.00 43 1006.6
20260503170704 68 276 0.0 2.0 0.00 0.00 0.00 43 1006.7
20260503170204 66 209 0.0 0.0 0.00 0.00 0.00 47 1006.7
20260503150703 63 211 1.0 5.0 0.00 0.00 0.00 38 1007.6
20260503150204 62 249 3.0 6.0 0.00 0.00 0.00 53 1007.6
20260503140203 57 214 0.0 0.0 0.00 0.00 0.00 61 1008.3
20260503131204 52 190 0.0 0.0 0.00 0.00 0.00 64 1008.9
20260503130705 52 207 0.0 0.0 0.00 0.00 0.00 65 1008.9
20260503120203 49 270 0.0 0.0 0.00 0.00 0.00 55 1009.0
20260503110704 48 228 0.0 0.0 0.00 0.00 0.00 65 1008.9
20260503110206 48 185 0.0 0.0 0.00 0.00 0.00 65 1008.9
20260503090203 49 204 0.0 0.0 0.00 0.00 0.00 63 1010.0
20260503080704 51 266 0.0 0.0 0.00 0.00 0.00 59 1010.8
20260503080204 51 252 0.0 0.0 0.00 0.00 0.00 59 1010.8
20260503072204 50 219 0.0 0.0 0.00 0.00 0.00 62 1011.0
20260503071704 49 239 0.0 0.0 0.00 0.00 0.00 62 1011.0
20260503071203 49 248 0.0 0.0 0.00 0.00 0.00 46 1011.0
20260503070704 49 234 0.0 0.0 0.00 0.00 0.00 63 1011.0
20260503070204 49 221 0.0 0.0 0.00 0.00 0.00 64 1011.0
20260503060204 49 239 0.0 0.0 0.00 0.00 0.00 65 1011.3
20260503054704 49 201 0.0 0.0 0.00 0.00 0.00 63 1011.5
20260503054204 48 192 0.0 0.0 0.00 0.00 0.00 54 1011.5
20260503053704 48 220 0.0 0.0 0.00 0.00 0.00 63 1011.5
20260503053204 48 194 0.0 0.0 0.00 0.00 0.00 56 1011.7
20260503052204 48 215 0.0 0.0 0.00 0.00 0.00 64 1011.8
20260503051703 48 202 0.0 0.0 0.00 0.00 0.00 63 1011.8
20260503051204 48 189 0.0 0.0 0.00 0.00 0.00 63 1011.8
20260503050704 48 180 0.0 0.0 0.00 0.00 0.00 62 1011.6
20260503050204 49 173 0.0 0.0 0.00 0.00 0.00 62 1011.6
20260503045703 49 180 0.0 0.0 0.00 0.00 0.00 47 1011.8
20260503045204 49 189 0.0 0.0 0.00 0.00 0.00 61 1011.8
20260503044704 49 230 0.0 0.0 0.00 0.00 0.00 50 1011.8
20260503044204 49 190 0.0 0.0 0.00 0.00 0.00 61 1011.8
20260503043704 49 203 0.0 0.0 0.00 0.00 0.00 44 1011.8
20260503043204 49 177 0.0 0.0 0.00 0.00 0.00 63 1012.1
20260503042704 48 215 0.0 0.0 0.00 0.00 0.00 46 1012.1
20260503042204 48 206 0.0 0.0 0.00 0.00 0.00 66 1012.2
20260503041704 48 180 0.0 0.0 0.00 0.00 0.00 67 1012.2
20260503041204 47 180 0.0 0.0 0.00 0.00 0.00 67 1012.2
20260503040704 47 174 0.0 0.0 0.00 0.00 0.00 67 1012.2
20260503040204 47 180 0.0 0.0 0.00 0.00 0.00 67 1012.2
20260503035704 47 180 0.0 0.0 0.00 0.00 0.00 68 1012.4
20260503035204 47 180 0.0 0.0 0.00 0.00 0.00 68 1012.4
20260503034204 47 158 0.0 0.0 0.00 0.00 0.00 66 1012.5
20260503033704 48 180 0.0 0.0 0.00 0.00 0.00 65 1012.5
20260503033204 48 180 0.0 0.0 0.00 0.00 0.00 62 1012.7
20260503032704 49 158 0.0 0.0 0.00 0.00 0.00 63 1012.7
20260503031205 49 112 0.0 0.0 0.00 0.00 0.00 61 1012.8
20260503030704 49 180 0.0 0.0 0.00 0.00 0.00 47 1013.0
20260503024704 49 180 0.0 0.0 0.00 0.00 0.00 49 1013.1
20260503023204 49 197 0.0 0.0 0.00 0.00 0.00 60 1013.2
20260503022704 49 180 0.0 0.0 0.00 0.00 0.00 45 1013.2
20260503022204 49 180 0.0 0.0 0.00 0.00 0.00 60 1013.3
20260503021704 49 202 0.0 0.0 0.00 0.00 0.00 59 1013.3
20260503020703 50 180 0.0 0.0 0.00 0.00 0.00 58 1013.2
20260503015704 51 180 0.0 0.0 0.00 0.00 0.00 57 1013.2
20260503015204 51 225 0.0 0.0 0.00 0.00 0.00 57 1013.2
20260503014704 51 196 0.0 0.0 0.00 0.00 0.00 56 1013.2
20260503014204 52 202 0.0 0.0 0.00 0.00 0.00 54 1013.3
20260503013704 52 229 0.0 0.0 0.00 0.00 0.00 53 1013.3
20260503013204 53 210 0.0 0.0 0.00 0.00 0.00 51 1013.4
20260503012205 54 225 0.0 0.0 0.00 0.00 0.00 49 1013.4
20260503011704 54 225 0.0 0.0 0.00 0.00 0.00 49 1013.4
20260503011204 55 202 0.0 0.0 0.00 0.00 0.00 47 1013.4
20260503010704 55 202 0.0 0.0 0.00 0.00 0.00 45 1013.4
20260503010204 56 248 0.0 0.0 0.00 0.00 0.00 44 1013.4
20260503005704 56 270 0.0 0.0 0.00 0.00 0.00 27 1013.5
20260503005204 56 262 0.0 0.0 0.00 0.00 0.00 43 1013.5
20260503004703 56 270 0.0 0.0 0.00 0.00 0.00 43 1013.5
20260503004204 57 244 0.0 0.0 0.00 0.00 0.00 43 1013.4
20260503002704 57 270 0.0 0.0 0.00 0.00 0.00 41 1013.5
20260503002204 58 256 0.0 3.0 0.00 0.00 0.00 40 1013.5
20260503001704 58 242 0.0 0.0 0.00 0.00 0.00 40 1013.6
20260503001204 58 270 0.0 0.0 0.00 0.00 0.00 27 1013.6
20260503000704 58 270 0.0 0.0 0.00 0.00 0.00 38 1013.6
20260503000204 59 257 0.0 0.0 0.00 0.00 0.00 27 1013.6
20260502235704 59 248 0.0 0.0 0.00 0.00 0.00 38 1013.7
20260502235203 59 285 0.0 0.0 0.00 0.00 0.00 29 1013.7
20260502234704 59 270 0.0 0.0 0.00 0.00 0.00 37 1013.7
20260502234204 60 293 0.0 1.0 0.00 0.00 0.00 27 1013.7
20260502233204 61 256 0.0 6.0 0.00 0.00 0.00 35 1013.7
20260502232704 61 270 0.0 0.0 0.00 0.00 0.00 36 1013.7
20260502232203 61 270 0.0 0.0 0.00 0.00 0.00 35 1013.7
20260502231704 62 268 0.0 1.0 0.00 0.00 0.00 27 1013.7
20260502230706 62 250 2.0 9.0 0.00 0.00 0.00 34 1013.7
20260502230204 63 264 0.0 0.0 0.00 0.00 0.00 34 1013.7
20260502225703 63 300 0.0 12.0 0.00 0.00 0.00 34 1013.9
20260502225204 63 300 0.0 1.0 0.00 0.00 0.00 34 1013.9
20260502224704 62 270 0.0 8.0 0.00 0.00 0.00 34 1013.9
20260502224203 63 270 0.0 3.0 0.00 0.00 0.00 34 1014.0
20260502223704 62 256 0.0 0.0 0.00 0.00 0.00 35 1014.0
20260502223203 61 218 0.0 0.0 0.00 0.00 0.00 36 1014.2
20260502222703 60 255 0.0 10.0 0.00 0.00 0.00 26 1014.2
20260502222204 62 263 0.0 1.0 0.00 0.00 0.00 34 1014.1
20260502221703 62 268 0.0 0.0 0.00 0.00 0.00 35 1014.1
20260502221204 62 279 1.0 5.0 0.00 0.00 0.00 35 1014.1
20260502220704 62 284 1.0 6.0 0.00 0.00 0.00 36 1014.2
20260502220204 61 251 2.0 12.0 0.00 0.00 0.00 36 1014.2
20260502215704 62 270 1.0 6.0 0.00 0.00 0.00 34 1014.2
20260502215204 62 270 0.0 0.0 0.00 0.00 0.00 36 1014.2
20260502214705 61 245 0.0 7.0 0.00 0.00 0.00 35 1014.2
20260502214204 61 235 0.0 1.0 0.00 0.00 0.00 37 1014.4
20260502213704 62 206 0.0 0.0 0.00 0.00 0.00 36 1014.4
20260502213203 63 256 0.0 0.0 0.00 0.00 0.00 25 1014.5
20260502212704 61 248 0.0 0.0 0.00 0.00 0.00 36 1014.5
20260502211703 62 356 1.0 2.0 0.00 0.00 0.00 36 1014.7
20260502211203 62 69 0.0 1.0 0.00 0.00 0.00 35 1014.7
20260502210704 63 274 1.0 2.0 0.00 0.00 0.00 35 1014.7
20260502205704 62 262 0.0 0.0 0.00 0.00 0.00 35 1014.9
20260502205204 62 228 0.0 3.0 0.00 0.00 0.00 22 1014.9
20260502204703 63 333 0.0 2.0 0.00 0.00 0.00 34 1014.9
20260502204203 61 270 0.0 1.0 0.00 0.00 0.00 23 1015.1
20260502203704 61 266 0.0 1.0 0.00 0.00 0.00 35 1015.1
20260502203203 64 270 0.0 0.0 0.00 0.00 0.00 32 1015.2
20260502202703 64 270 0.0 1.0 0.00 0.00 0.00 34 1015.2
20260502202204 63 225 0.0 8.0 0.00 0.00 0.00 34 1015.3
20260502201204 62 270 0.0 6.0 0.00 0.00 0.00 34 1015.4
20260502200704 62 219 0.0 15.0 0.00 0.00 0.00 35 1015.6
20260502200204 62 254 0.0 15.0 0.00 0.00 0.00 34 1015.6
20260502195703 63 338 1.0 10.0 0.00 0.00 0.00 26 1015.7
20260502195203 64 311 5.0 10.0 0.00 0.00 0.00 35 1015.7
20260502194704 63 256 2.0 5.0 0.00 0.00 0.00 34 1015.7
20260502194203 62 257 0.0 6.0 0.00 0.00 0.00 26 1015.9
20260502193704 64 234 0.0 2.0 0.00 0.00 0.00 35 1015.9
20260502193203 62 280 0.0 2.0 0.00 0.00 0.00 34 1016.1
20260502192704 64 262 4.0 10.0 0.00 0.00 0.00 33 1016.1
20260502191704 62 309 1.0 3.0 0.00 0.00 0.00 27 1016.2
20260502191204 61 278 1.0 3.0 0.00 0.00 0.00 35 1016.2
20260502190704 59 172 0.0 2.0 0.00 0.00 0.00 24 1016.4
20260502185704 63 333 0.0 1.0 0.00 0.00 0.00 26 1016.5